Regional Weather Roundup
Issued by NWS

Home | Current Version | Previous Version | Text Only | Print | Product List | Glossary Off
Versions: 1 2 3 4 5 6 7 8 9 10 11 12 13 14 15 16 17 18 19 20 21 22 23 24 25 26 27 28 29 30 31 32 33 34 35 36 37 38 39 40 41 42 43 44 45 46 47 48 49 50

896
ASUS45 KSLC 240510
RWRUT

UTAH REGIONAL WEATHER ROUNDUP
NATIONAL WEATHER SERVICE SALT LAKE CITY UT
1000 PM MST MON JAN 23 2017

UTZ001>011-023>025-240600-

NORTHERN UTAH

CITY           SKY/WX    TMP DP  RH WIND       PRES   REMARKS
BRIGHAM CITY     N/A     29  27  92 N6        29.62S WCI  23
HILL AFB       LGT SNOW  28  26  95 E5        29.61R FOG     WCI  22
LOGAN          LGT SNOW  28  27  96 E3        29.60S FOG
OGDEN          LGT SNOW  28  27  96 SE5       29.61S FOG     WCI  23
SALT LAKE CITY CLOUDY    34  27  75 NE6       29.62R WCI  29
TOOELE VALLEY  CLOUDY    32  27  80 CALM      29.62R
WENDOVER       MOCLDY    28  18  64 W13       29.63S WCI  18
HEBER CITY     CLOUDY    27  21  80 CALM      29.56S
WEST JORDAN    CLOUDY    31  31 100 CALM      29.62R

$$

UTZ011>015-024>027-240600-

CENTRAL/NORTHEAST UTAH

CITY           SKY/WX    TMP DP  RH WIND       PRES   REMARKS
PROVO AIRPORT  CLOUDY    29  28  96 S8        29.62F WCI  21
MOAB/CANYONLAN PTCLDY    35  28  75 E3        29.56S
DELTA          CLOUDY    30  30 100 NE3       29.64S
PRICE          MOCLDY    19  17  92 NE9       29.52F WCI   8
ROOSEVELT      FOG       25  23  93 CALM      29.57S VSB 1/2
VERNAL         NOT AVBL

$$

UTZ013>016-019>022-027-240600-

SOUTHERN UTAH

CITY           SKY/WX    TMP DP  RH WIND       PRES   REMARKS
BRYCE CANYON   CLOUDY    17  12  80 NW6       29.58F WCI   9
CEDAR CITY     CLOUDY    23  20  88 SW3       29.61S
MILFORD        PTCLDY    30  25  81 SW8       29.62R WCI  22
ST GEORGE      CLOUDY    37  30  75 SW6       29.73R WCI  33
HANKSVILLE     MOCLDY    34  27  75 MISG      29.59F
BLANDING       CLOUDY    29  29 100 S10       29.70S VSB 3/4 WCI  20

$$

REGIONAL REPORTS     COLORADO/ARIZONA

CITY           SKY/WX    TMP DP  RH WIND       PRES   REMARKS
CRAIG, CO      CLOUDY    31  20  63 S14       29.53F WCI  21
GRAND JUNCTION CLEAR     30  30 100 E5        29.56F WCI  25
RIFLE, CO      CLOUDY    29  27  92 SW3       29.57S
MONTROSE, CO   CLOUDY    33  26  75 SE6       29.62S WCI  28
CORTEZ, CO     FLURRIES  29  27  92 E8        29.65F WCI  21
COLORADO CITY  LGT SNOW  32  32 100 W7        29.68R WCI  26
PAGE, AZ       CLOUDY    38  28  67 CALM      29.64F
GRAND CANYON   CLOUDY    25  24  96 SW5       29.66S WCI  19
KINGMAN, AZ    CLOUDY    38  32  79 S9        29.72R WCI  31
FLAGSTAFF, AZ  LGT SNOW  26  24  92 SW14G25   29.65S FOG     WCI  14

$$

REGIONAL REPORTS    NEVADA/IDAHO/WYOMING

CITY           SKY/WX    TMP DP  RH WIND       PRES   REMARKS
LAS VEGAS, NV  MOCLDY    44  31  60 NW13G23   29.70S
ELY, NY        MOCLDY     1  -2  87 VRB3      29.66S
ELKO, NV       CLOUDY    25  18  74 CALM      29.70R
POCATELLO, ID  LGT SNOW  26  24  92 W18G28    29.59R FOG     WCI  13
BURLEY, ID     CLOUDY    29  23  78 W16       29.59R WCI  17
FORT BRIDGER,    N/A     22  22  98 SW25      29.52R WCI   5
EVANSTON, WY   CLOUDY    18  14  84 SW20      29.50R WCI   2
ROCK SPRINGS,  LGT SNOW  24  19  81 W20       29.49R WCI  10

$$




USA.gov is the U.S. government's official web portal to all federal, state and local government web resources and services.